STARLINK-35861

Last updated on Sun Dec 07 2025 00:02:05 GMT+0000 (Coordinated Universal Time)

1 66355U 25254H 25340.58335648 -.00130324 00000+0 -23701-2 0 9998 2 66355 53.1602 306.0110 0001061 73.1203 350.5998 15.49359859 5933
UTC large
Height (km)
Speed (km/s)
/
Latitude / Longitude
Inclination (degrees)
Orbital Period (minutes)
Azimuth
Elevation
Range (km)
Doppler Factor

Next 0 passes for location: London (51.5072 / 0.1276)

Sorry there are no passes over London.